sat.trackr.live / text

‹ back to catalog

STARLINK-32584

NORAD 62179 · 2024-225S

PAYLOAD ACTIVE UNKNOWN

§ Identity

Operator
Country
US
Launch date
2024-11-30
Launch site
AFWTR
Launch vehicle
Mass (kg)
RCS (m²)

Purposes: comms

External: N2YO · Heavens-Above · Gunter

§ Orbital elements

Epoch: 2026-05-24T22:00:31.576032Z

Period
96.11 min
Inclination
70.0017°
Eccentricity
0.0002019
Mean motion
14.98335691 rev/d
Perigee alt
570.6 km
Apogee alt
573.4 km
Semi-major
6,950.2 km
B*
2.4529e-4
RAAN
332.1744°
Arg perigee
271.5226°
Mean anomaly
88.5702°
Rev number
8,129

§ Raw data

STARLINK-325841 62179U 24225S   26144.91703213  .00002835  00000+0  24529-3 0  99952 62179  70.0017 332.1744 0002019 271.5226  88.5702 14.98335691 81292

JSON: /api/v1/satellites/62179 · /tle

For live sub-satellite position, see the globe view (requires WebGL).

§ Visibility from observer

Set your observer location to see the next 7 days of passes ≥ 10°. The values pass through the URL so the page stays shareable.

No JS? Fill the form by hand. The geolocation button needs JavaScript.